Location: Oshawa
(43.9000°N, 78.8670°W)
Time: 02:11:20
(UTC-04:00)

Iridium 98 - Visible Passes

Search period start: 24 April 2014 00:00
Search period end: 04 May 2014 00:00
Orbit: 747 x 750 km, 86.4° (Epoch: 23 April)

Date Brightness Start Highest point End Pass type
(mag) Time Alt. Az. Time Alt. Az. Time Alt. Az.
24 Apr 8.1 21:55:52 10° WSW 21:59:33 20° WNW 22:03:17 10° NNW visible
25 Apr 6.8 21:12:25 10° SSW 21:17:12 42° W 21:22:01 10° N visible
26 Apr 8.6 22:14:20 10° W 22:15:55 11° WNW 22:17:30 10° NW visible
27 Apr 7.9 21:29:18 10° SW 21:33:22 24° WNW 21:37:29 10° NNW visible
28 Apr 6.5 20:46:10 10° SSW 20:51:04 52° W 20:56:01 10° N visible
29 Apr 8.5 21:47:05 10° WSW 21:49:41 14° WNW 21:52:17 10° NW visible
30 Apr 7.7 21:02:49 10° SW 21:07:12 29° WNW 21:11:37 10° NNW visible
02 May 8.4 21:20:12 10° WSW 21:23:27 17° WNW 21:26:43 10° NNW visible
